DW8052 Weather Reports


time (UTC)temp
F
wind
direction
speed
knots
gust
knots
rain 1hr
in
rain 24hr
in
rain mn
in
humidity
%
barometer
mb
20260906192715 58 256 6.1 7.0 0.00 0.00 0.00 80 1021.8
20260906192216 58 265 6.1 7.8 0.00 0.00 0.00 80 1021.8
20260906191715 58 265 5.2 6.1 0.00 0.00 0.00 80 1021.5
20260906191216 57 272 5.2 6.1 0.00 0.00 0.00 80 1021.5
20260906190715 57 283 4.3 5.2 0.00 0.00 0.00 80 1021.5
20260906190216 58 280 5.2 6.1 0.00 0.00 0.00 79 1021.5
20260906185715 58 302 4.3 4.3 0.00 0.00 0.00 79 1021.7
20260906185215 58 256 4.3 5.2 0.00 0.00 0.00 80 1021.9
20260906184715 58 244 5.2 6.1 0.00 0.00 0.00 80 1021.8
20260906184216 58 248 5.2 7.0 0.00 0.00 0.00 81 1022.0
20260906183716 58 231 6.1 7.8 0.00 0.00 0.00 81 1021.8
20260906183216 58 219 6.1 7.8 0.00 0.00 0.00 81 1021.9
20260906182716 58 227 6.1 7.0 0.00 0.00 0.00 81 1021.9
20260906182215 57 231 6.1 7.8 0.00 0.00 0.00 82 1022.1
20260906181715 57 245 7.0 7.8 0.00 0.00 0.00 82 1022.1
20260906180716 57 242 7.0 8.7 0.00 0.00 0.00 82 1022.0
20260906180215 57 250 6.1 7.8 0.00 0.00 0.00 82 1022.2
20260906175716 57 237 7.0 8.7 0.00 0.00 0.00 82 1022.0
20260906175216 57 235 7.0 8.7 0.00 0.00 0.00 82 1021.9
20260906174716 57 230 7.8 10.4 0.00 0.00 0.00 82 1021.9
20260906174215 57 238 7.8 10.4 0.00 0.00 0.00 82 1021.8
20260906173715 57 241 8.7 10.4 0.00 0.00 0.00 82 1022.0
20260906173216 57 239 7.8 10.4 0.00 0.00 0.00 82 1021.8
20260906172716 57 236 6.1 7.8 0.00 0.00 0.00 82 1022.1
20260906172215 57 233 6.1 7.8 0.00 0.00 0.00 82 1021.9
20260906171716 57 239 4.3 6.1 0.00 0.00 0.00 82 1022.1
20260906171216 57 242 6.1 7.0 0.00 0.00 0.00 81 1022.1
20260906170716 57 246 6.1 7.8 0.00 0.00 0.00 81 1022.1
20260906170215 57 245 5.2 7.8 0.00 0.00 0.00 81 1022.0
20260906165715 57 242 5.2 7.0 0.00 0.00 0.00 82 1022.0
20260906165216 57 241 5.2 7.0 0.00 0.00 0.00 81 1022.0
20260906164716 57 234 5.2 6.1 0.00 0.00 0.00 81 1022.0
20260906164216 57 243 5.2 7.8 0.00 0.00 0.00 81 1022.1
20260906163715 57 250 5.2 7.8 0.00 0.00 0.00 81 1022.1
20260906163216 58 257 5.2 7.8 0.00 0.00 0.00 81 1022.2
20260906162716 58 248 6.1 10.4 0.00 0.00 0.00 81 1022.1
20260906162215 58 247 6.1 7.8 0.00 0.00 0.00 80 1022.1
20260906161716 58 253 6.1 7.8 0.00 0.00 0.00 80 1022.1
20260906161216 58 254 4.3 5.2 0.00 0.00 0.00 80 1022.2
20260906160215 58 247 5.2 6.1 0.00 0.00 0.00 80 1022.2
20260906155716 58 251 5.2 8.7 0.00 0.00 0.00 80 1022.1
20260906155215 58 248 7.8 8.7 0.00 0.00 0.00 80 1022.2
20260906154715 58 260 7.0 7.8 0.00 0.00 0.00 79 1022.2
20260906154215 59 262 6.1 7.8 0.00 0.00 0.00 79 1022.2
20260906153215 59 256 4.3 7.0 0.00 0.00 0.00 79 1022.4
20260906152715 59 272 5.2 7.8 0.00 0.00 0.00 78 1022.7
20260906152216 59 272 6.1 6.1 0.00 0.00 0.00 78 1022.5
20260906151216 60 266 4.3 6.1 0.00 0.00 0.00 77 1022.8
20260906150715 60 269 4.3 6.1 0.00 0.00 0.00 76 1022.9
20260906150215 60 264 4.3 7.0 0.00 0.00 0.00 76 1022.8
20260906145715 60 258 5.2 6.1 0.00 0.00 0.00 76 1022.9
20260906145215 60 256 5.2 6.1 0.00 0.00 0.00 75 1022.6
20260906144715 61 241 5.2 6.1 0.00 0.00 0.00 75 1022.4
20260906144215 61 242 4.3 6.1 0.00 0.00 0.00 75 1022.7
20260906143715 61 250 4.3 6.1 0.00 0.00 0.00 75 1022.6
20260906142215 61 232 4.3 5.2 0.00 0.00 0.00 74 1022.5
20260906141715 61 259 3.5 4.3 0.00 0.00 0.00 74 1022.6
20260906141215 61 263 4.3 4.3 0.00 0.00 0.00 74 1022.7
20260906140215 61 218 3.5 5.2 0.00 0.00 0.00 74 1022.4
20260906135715 62 244 5.2 7.8 0.00 0.00 0.00 74 1022.7
20260906135215 62 213 5.2 7.8 0.00 0.00 0.00 74 1022.3
20260906134715 62 195 6.1 8.7 0.00 0.00 0.00 74 1022.2
20260906134215 62 186 5.2 7.8 0.00 0.00 0.00 73 1022.2
20260906133715 62 189 6.1 10.4 0.00 0.00 0.00 73 1022.3
20260906133215 62 180 8.7 13.0 0.00 0.00 0.00 73 1022.4
20260906132715 62 184 7.8 11.3 0.00 0.00 0.00 73 1022.2
20260906132216 62 184 6.1 11.3 0.00 0.00 0.00 73 1022.3
20260906131215 62 157 7.8 12.2 0.00 0.00 0.00 73 1022.6
20260906130715 62 172 5.2 11.3 0.00 0.00 0.00 73 1022.3
20260906130214 62 173 6.1 11.3 0.00 0.00 0.00 73 1022.3
20260906125215 62 176 7.8 10.4 0.00 0.00 0.00 73 1022.4
20260906124715 62 184 6.1 12.2 0.00 0.00 0.00 73 1022.5
20260906124215 62 172 7.8 13.9 0.00 0.00 0.00 73 1022.4
20260906123715 62 173 7.8 11.3 0.00 0.00 0.00 73 1022.3
20260906123215 62 168 7.8 12.2 0.00 0.00 0.00 73 1022.4
20260906122715 62 163 9.6 14.8 0.00 0.00 0.00 72 1022.5
20260906122215 62 169 7.8 13.9 0.00 0.00 0.00 72 1022.3
20260906121715 62 164 9.6 14.8 0.00 0.00 0.00 72 1022.2
20260906121215 62 170 7.8 14.8 0.00 0.00 0.00 72 1022.2
20260906120714 62 173 8.7 14.8 0.00 0.00 0.00 72 1022.2
20260906120215 62 158 7.8 13.9 0.00 0.00 0.00 72 1022.2
20260906115715 62 169 8.7 13.0 0.00 0.00 0.00 72 1022.3
20260906115214 62 159 7.8 18.2 0.00 0.00 0.00 72 1022.1
20260906114715 62 168 8.7 13.9 0.00 0.00 0.00 71 1022.1
20260906114215 62 166 7.8 17.4 0.00 0.00 0.00 71 1022.1
20260906113215 62 175 7.8 15.6 0.00 0.00 0.00 71 1022.3
20260906112715 62 186 9.6 17.4 0.00 0.00 0.00 71 1022.2
20260906112214 62 180 9.6 17.4 0.00 0.00 0.00 71 1022.3
20260906111715 62 172 7.8 17.4 0.00 0.00 0.00 71 1022.3
20260906111215 62 176 8.7 14.8 0.00 0.00 0.00 71 1022.3
20260906110715 62 181 11.3 18.2 0.00 0.00 0.00 70 1022.2
20260906110215 62 175 12.2 19.1 0.00 0.00 0.00 70 1022.1
20260906105214 62 175 12.2 20.9 0.00 0.00 0.00 71 1021.9
20260906104714 62 185 12.2 20.9 0.00 0.00 0.00 71 1022.0
20260906104215 62 181 10.4 19.1 0.00 0.00 0.00 71 1021.8
20260906103715 63 179 13.0 18.2 0.00 0.00 0.00 71 1022.0
20260906103214 63 181 9.6 15.6 0.00 0.00 0.00 71 1021.7
20260906102715 63 171 12.2 17.4 0.00 0.00 0.00 71 1021.9
20260906102215 63 173 11.3 18.2 0.00 0.00 0.00 71 1021.7
20260906101715 63 171 7.8 13.9 0.00 0.00 0.00 70 1021.6
20260906101215 63 182 9.6 17.4 0.00 0.00 0.00 70 1021.5
20260906100715 63 177 8.7 15.6 0.00 0.00 0.00 70 1021.6
20260906100214 63 174 11.3 17.4 0.00 0.00 0.00 70 1021.3
20260906095714 63 176 10.4 19.1 0.00 0.00 0.00 70 1021.3
20260906095215 63 181 13.9 21.7 0.00 0.00 0.00 69 1021.2
20260906094714 63 174 11.3 20.0 0.00 0.00 0.00 69 1021.1
20260906094214 63 181 11.3 18.2 0.00 0.00 0.00 69 1021.0
20260906093715 63 162 13.9 22.6 0.00 0.00 0.00 69 1020.9
20260906093214 63 169 12.2 20.9 0.00 0.00 0.00 68 1020.8
20260906092714 63 184 13.0 22.6 0.00 0.00 0.00 69 1020.8
20260906092214 63 177 14.8 20.0 0.00 0.00 0.00 69 1020.7
20260906091714 63 173 14.8 24.3 0.00 0.00 0.00 69 1020.6
20260906091214 63 170 13.9 19.1 0.00 0.00 0.00 69 1020.8
20260906090715 63 177 11.3 20.9 0.00 0.00 0.00 69 1020.7
20260906090214 63 162 12.2 17.4 0.00 0.00 0.00 69 1020.5
20260906085714 63 168 13.9 19.1 0.00 0.00 0.00 68 1020.5
20260906085215 63 171 16.5 21.7 0.00 0.00 0.00 68 1020.5
20260906084715 63 162 14.8 22.6 0.00 0.00 0.00 67 1020.4
20260906083215 63 165 11.3 17.4 0.00 0.00 0.00 68 1020.4
20260906082714 63 172 14.8 21.7 0.00 0.00 0.00 68 1020.3
20260906082214 63 165 12.2 17.4 0.00 0.00 0.00 69 1020.2
20260906081214 63 172 13.9 20.9 0.00 0.00 0.00 69 1020.3
20260906080714 63 168 12.2 18.2 0.00 0.00 0.00 68 1020.0
20260906080215 63 173 13.9 19.1 0.00 0.00 0.00 68 1019.8
20260906075714 63 170 15.6 20.9 0.00 0.00 0.00 67 1019.7
20260906075215 64 168 11.3 19.1 0.00 0.00 0.00 68 1019.7
20260906074714 64 164 12.2 18.2 0.00 0.00 0.00 67 1019.8
20260906074215 64 174 12.2 17.4 0.00 0.00 0.00 67 1019.6
20260906073215 64 170 10.4 17.4 0.00 0.00 0.00 66 1019.5
20260906072715 65 158 13.0 20.0 0.00 0.00 0.00 66 1019.2
20260906072214 65 153 12.2 20.0 0.00 0.00 0.00 66 1019.4
20260906071214 65 155 10.4 20.0 0.00 0.00 0.00 64 1019.2
20260906070714 66 164 14.8 20.9 0.00 0.00 0.00 63 1019.0
20260906065714 66 161 12.2 18.2 0.00 0.00 0.00 61 1019.0
20260906065214 66 155 11.3 19.1 0.00 0.00 0.00 61 1018.8
20260906064714 67 148 12.2 19.1 0.00 0.00 0.00 60 1018.8
20260906064214 67 152 8.7 17.4 0.00 0.00 0.00 58 1018.9
20260906063714 67 153 11.3 18.2 0.00 0.00 0.00 57 1018.7
20260906063214 68 151 10.4 15.6 0.00 0.01 0.00 56 1018.7
20260906062714 68 161 11.3 14.8 0.00 0.02 0.00 55 1018.7
20260906062214 68 152 10.4 14.8 0.00 0.02 0.00 54 1018.6
20260906061215 68 141 13.9 18.2 0.00 0.02 0.00 50 1018.7
20260906055714 68 153 11.3 15.6 0.00 0.02 0.00 51 1018.5
20260906055215 67 141 10.4 17.4 0.00 0.02 0.00 50 1018.4
20260906054714 67 165 11.3 18.2 0.00 0.02 0.00 50 1018.3
20260906054214 68 158 13.9 19.1 0.00 0.02 0.00 49 1018.1
20260906053714 68 149 13.0 18.2 0.00 0.02 0.00 50 1018.0
20260906053214 68 149 13.0 17.4 0.00 0.02 0.00 48 1018.0
20260906052714 68 150 12.2 17.4 0.00 0.02 0.00 47 1017.9
20260906052215 68 153 12.2 17.4 0.00 0.02 0.00 47 1017.9
20260906051714 68 163 13.9 17.4 0.00 0.02 0.00 46 1017.8
20260906051214 68 156 11.3 17.4 0.00 0.02 0.00 48 1017.6
20260906050714 69 166 11.3 18.2 0.00 0.02 0.00 45 1018.0
20260906050214 69 159 10.4 17.4 0.00 0.02 0.00 44 1017.7
20260906045714 69 153 10.4 14.8 0.00 0.02 0.00 44 1017.5
20260906044714 69 141 7.8 13.0 0.00 0.02 0.00 44 1017.5
20260906043714 69 153 7.0 12.2 0.00 0.02 0.00 44 1017.4
20260906042714 70 130 7.0 12.2 0.00 0.02 0.00 40 1017.2
20260906042214 70 119 6.1 11.3 0.00 0.02 0.00 40 1017.1
20260906041714 70 156 7.0 12.2 0.00 0.02 0.00 39 1017.0
20260906041214 70 149 7.8 11.3 0.00 0.02 0.00 40 1017.1
20260906040714 70 140 7.0 12.2 0.00 0.02 0.00 41 1017.1
20260906035714 70 148 8.7 13.0 0.00 0.02 0.00 41 1017.1
20260906035214 70 141 8.7 13.0 0.00 0.02 0.00 40 1017.0
20260906034714 71 113 7.8 13.9 0.00 0.02 0.00 39 1017.0
20260906034214 71 138 8.7 13.0 0.00 0.02 0.00 38 1016.9
20260906033713 71 146 8.7 14.8 0.00 0.02 0.00 38 1016.8
20260906033214 71 145 7.0 12.2 0.00 0.02 0.00 38 1016.9
20260906032713 70 142 8.7 14.8 0.00 0.02 0.00 39 1017.0
20260906032214 71 140 10.4 17.4 0.00 0.02 0.00 38 1016.9
20260906030714 71 154 10.4 14.8 0.00 0.02 0.00 38 1016.8
20260906030214 71 147 11.3 17.4 0.00 0.02 0.00 37 1016.8
20260906025714 71 145 8.7 14.8 0.00 0.02 0.00 37 1016.9
20260906025214 71 159 11.3 17.4 0.00 0.02 0.00 36 1016.8
20260906024714 71 150 10.4 17.4 0.00 0.02 0.00 37 1016.9
20260906024214 71 145 12.2 18.2 0.00 0.02 0.00 36 1017.0
20260906023714 71 166 11.3 18.2 0.00 0.02 0.00 35 1016.9
20260906022714 71 158 11.3 18.2 0.00 0.02 0.00 35 1016.8
20260906022214 71 156 9.6 18.2 0.00 0.02 0.00 36 1016.8
20260906021714 72 161 8.7 17.4 0.00 0.02 0.00 36 1017.0
20260906021213 72 172 10.4 17.4 0.00 0.02 0.00 34 1016.9
20260906020713 72 157 12.2 17.4 0.00 0.02 0.00 34 1016.9
20260906020214 72 151 8.7 15.6 0.00 0.02 0.00 33 1016.8
20260906015714 72 151 5.2 18.2 0.00 0.02 0.00 34 1016.7
20260906014714 72 171 10.4 18.2 0.00 0.02 0.00 33 1016.8
20260906013713 71 186 14.8 20.0 0.00 0.02 0.00 32 1016.7
20260906013213 71 180 10.4 20.0 0.00 0.02 0.00 33 1016.7
20260906012713 72 182 12.2 22.6 0.00 0.02 0.00 33 1016.7
20260906011713 72 179 10.4 18.2 0.00 0.02 0.00 33 1016.8
20260906011213 71 198 8.7 20.0 0.00 0.02 0.00 33 1017.0
20260906010714 71 200 14.8 22.6 0.00 0.02 0.00 33 1016.8
20260906010214 71 215 11.3 18.2 0.00 0.02 0.00 32 1016.9
20260906005714 71 210 9.6 17.4 0.00 0.02 0.00 33 1017.1
20260906005213 71 192 11.3 20.0 0.00 0.02 0.00 33 1016.7
20260906004714 70 203 6.1 13.9 0.00 0.02 0.00 33 1016.7
20260906001714 69 245 10.4 17.4 0.00 0.02 0.00 37 1016.6
20260906001213 68 270 7.8 11.3 0.00 0.02 0.00 38 1016.6
20260905235713 67 267 10.4 17.4 0.00 0.02 0.00 38 1016.3
20260905234713 66 279 8.7 19.1 0.00 0.02 0.00 40 1016.3
20260905234213 66 276 10.4 15.6 0.00 0.02 0.00 39 1016.6
20260905233214 66 288 10.4 15.6 0.00 0.02 0.00 40 1016.3
20260905232713 66 281 7.8 14.8 0.00 0.02 0.00 41 1016.2
20260905232213 65 259 8.7 17.4 0.00 0.02 0.00 42 1016.2
20260905231714 64 269 12.2 18.2 0.00 0.02 0.00 42 1016.1
20260905231213 65 266 17.4 21.7 0.00 0.02 0.00 41 1016.0
20260905230714 64 259 11.3 19.1 0.00 0.02 0.00 43 1016.3
20260905230213 64 258 13.9 18.2 0.00 0.02 0.00 43 1016.0
20260905225213 64 270 13.9 18.2 0.00 0.02 0.00 43 1016.2
20260905224713 63 253 16.5 22.6 0.00 0.02 0.00 43 1016.2
20260905224214 63 280 13.9 20.0 0.00 0.02 0.00 44 1016.0
20260905223713 62 267 15.6 20.9 0.00 0.02 0.00 45 1015.9
20260905223213 62 268 18.2 26.1 0.00 0.02 0.00 45 1015.7
20260905222713 62 279 17.4 22.6 0.00 0.02 0.00 45 1015.6
20260905222213 62 270 19.1 25.2 0.00 0.02 0.00 45 1015.5
20260905221213 62 267 20.9 26.9 0.00 0.02 0.00 45 1015.4
20260905220713 62 256 16.5 25.2 0.00 0.02 0.00 46 1015.2
20260905220214 61 271 18.2 24.3 0.00 0.02 0.00 45 1015.3
20260905215713 61 270 15.6 24.3 0.00 0.02 0.00 46 1015.4
20260905215213 61 270 13.9 24.3 0.00 0.02 0.00 46 1015.5
20260905213713 61 268 13.9 22.6 0.00 0.02 0.00 46 1015.1
20260905213213 61 263 14.8 25.2 0.00 0.02 0.00 46 1014.9
20260905212713 61 270 11.3 20.0 0.00 0.02 0.00 47 1014.7
20260905212213 60 261 14.8 24.3 0.00 0.02 0.00 47 1014.8
20260905211213 60 266 10.4 21.7 0.00 0.02 0.00 48 1014.4
20260905210713 60 275 13.0 31.3 0.00 0.02 0.00 47 1014.3
20260905210213 60 270 22.6 33.0 0.00 0.02 0.00 47 1014.2
20260905205713 60 261 19.1 30.4 0.00 0.02 0.00 47 1014.2
20260905205213 60 267 19.1 28.7 0.00 0.02 0.00 48 1014.2
20260905204712 60 265 15.6 22.6 0.00 0.02 0.00 48 1013.9
20260905204213 60 263 15.6 21.7 0.00 0.02 0.00 49 1013.8
20260905203713 60 263 16.5 25.2 0.00 0.02 0.00 49 1013.8
20260905203214 60 259 15.6 22.6 0.00 0.02 0.00 50 1013.9
20260905202713 59 261 17.4 22.6 0.00 0.02 0.00 49 1013.4
20260905201713 59 264 16.5 20.9 0.00 0.02 0.00 50 1013.7
20260905201213 60 247 13.9 17.4 0.00 0.02 0.00 49 1013.7
20260905200213 60 219 11.3 17.4 0.00 0.02 0.00 48 1013.5
20260905195713 60 214 9.6 14.8 0.00 0.02 0.00 48 1013.6
20260905195213 60 239 10.4 17.4 0.00 0.02 0.00 49 1013.5
20260905194713 60 262 11.3 18.2 0.00 0.02 0.00 48 1013.3
20260905194213 60 249 7.8 15.6 0.00 0.02 0.00 47 1013.1
20260905193713 60 244 12.2 13.9 0.00 0.02 0.00 47 1013.1